Back to catalog

DELTA 1 DEB

AliveSSO
NORAD 13827·DEBRIS·🇺🇸 United States

Launched Mar 5, 1978 from Vandenberg Space Force Base

Loading…

Next Passes (next 24 hours)

TLE

FreshSource: Space-Track

Epoch: Sep 14, 2026, 12:01 UTC

1 13827U 78026FW  26257.50084728  .00001211  00000-0  23879-3 0  9997
2 13827  98.4138 275.5420 0059351 226.5352 291.3349 14.63321354293310

Track DELTA 1 DEB in real time with AllMySat

Download on the App Store